| time (UTC) | temp F | wind direction | speed MPH | gust MPH | rain 1hr in | rain 24hr in | rain mn in | humidity % | barometer mb |
| 20260510094507 | 49 | 156 | 0.0 | 0.0 | 0.00 | 0.33 | 0.00 | 99 | 1010.9 |
| 20260510093008 | 48 | 156 | 0.0 | 0.0 | 0.00 | 0.33 | 0.00 | 99 | 1010.9 |
| 20260510091511 | 48 | 156 | 0.0 | 0.0 | 0.00 | 0.33 | 0.00 | 99 | 1010.8 |
| 20260510090016 | 48 | 156 | 0.0 | 2.0 | 0.00 | 0.33 | 0.00 | 99 | 1010.9 |
| 20260510084525 | 48 | 155 | 0.0 | 3.0 | 0.00 | 0.33 | 0.00 | 99 | 1010.7 |
| 20260510083013 | 48 | 157 | 1.0 | 4.0 | 0.00 | 0.33 | 0.00 | 99 | 1011.0 |
| 20260510081510 | 49 | 149 | 0.0 | 0.0 | 0.00 | 0.33 | 0.00 | 99 | 1011.2 |
| 20260510080015 | 49 | 179 | 0.0 | 0.0 | 0.00 | 0.33 | 0.00 | 99 | 1011.1 |
| 20260510074523 | 49 | 253 | 0.0 | 0.0 | 0.00 | 0.33 | 0.00 | 99 | 1011.3 |
| 20260510073022 | 49 | 253 | 0.0 | 0.0 | 0.00 | 0.34 | 0.00 | 99 | 1011.3 |
| 20260510071504 | 49 | 254 | 0.0 | 0.0 | 0.00 | 0.34 | 0.00 | 99 | 1011.6 |
| 20260510070008 | 49 | 303 | 0.0 | 0.0 | 0.00 | 0.36 | 0.00 | 99 | 1011.6 |
| 20260510064513 | 49 | 317 | 0.0 | 0.0 | 0.00 | 0.38 | 0.00 | 99 | 1011.7 |
| 20260510063018 | 49 | 192 | 0.0 | 0.0 | 0.00 | 0.40 | 0.00 | 98 | 1011.2 |
| 20260510061523 | 50 | 145 | 0.0 | 0.0 | 0.00 | 0.40 | 0.00 | 99 | 1011.1 |
| 20260510060007 | 50 | 146 | 0.0 | 0.0 | 0.00 | 0.41 | 0.00 | 99 | 1011.3 |
| 20260510054512 | 49 | 146 | 0.0 | 0.0 | 0.00 | 0.41 | 0.00 | 99 | 1011.3 |
| 20260510053015 | 49 | 146 | 0.0 | 0.0 | 0.00 | 0.41 | 0.00 | 99 | 1011.3 |
| 20260510051522 | 48 | 146 | 0.0 | 0.0 | 0.00 | 0.41 | 0.00 | 98 | 1011.2 |
| 20260510050026 | 48 | 146 | 0.0 | 0.0 | 0.00 | 0.41 | 0.00 | 99 | 1010.9 |
| 20260510044512 | 48 | 146 | 0.0 | 0.0 | 0.00 | 0.41 | 0.00 | 98 | 1011.2 |
| 20260510043010 | 48 | 146 | 0.0 | 0.0 | 0.00 | 0.41 | 0.00 | 98 | 1011.2 |
| 20260510041514 | 47 | 146 | 0.0 | 0.0 | 0.00 | 0.41 | 0.00 | 98 | 1010.9 |
| 20260510040018 | 47 | 146 | 0.0 | 0.0 | 0.00 | 0.41 | 0.00 | 98 | 1010.9 |
| 20260510034523 | 46 | 146 | 0.0 | 0.0 | 0.00 | 0.41 | 0.41 | 97 | 1010.9 |
| 20260510033006 | 46 | 146 | 0.0 | 0.0 | 0.00 | 0.41 | 0.41 | 97 | 1010.7 |
| 20260510031510 | 46 | 146 | 0.0 | 0.0 | 0.00 | 0.41 | 0.41 | 97 | 1010.8 |
| 20260510030016 | 47 | 146 | 0.0 | 0.0 | 0.00 | 0.41 | 0.41 | 97 | 1010.9 |
| 20260510024523 | 47 | 146 | 0.0 | 0.0 | 0.00 | 0.41 | 0.41 | 96 | 1011.0 |
| 20260510023024 | 48 | 146 | 0.0 | 0.0 | 0.00 | 0.41 | 0.41 | 97 | 1010.9 |
| 20260510021509 | 48 | 146 | 0.0 | 0.0 | 0.00 | 0.41 | 0.41 | 97 | 1010.9 |
| 20260510020012 | 48 | 146 | 0.0 | 0.0 | 0.00 | 0.41 | 0.41 | 96 | 1010.8 |
| 20260510014518 | 49 | 146 | 0.0 | 0.0 | 0.00 | 0.41 | 0.41 | 95 | 1010.7 |
| 20260510013022 | 50 | 146 | 0.0 | 0.0 | 0.00 | 0.41 | 0.41 | 95 | 1010.8 |
| 20260510011524 | 51 | 146 | 0.0 | 0.0 | 0.00 | 0.41 | 0.41 | 96 | 1010.7 |
| 20260510010010 | 51 | 146 | 0.0 | 0.0 | 0.00 | 0.41 | 0.41 | 96 | 1010.4 |
| 20260510004516 | 52 | 146 | 0.0 | 0.0 | 0.00 | 0.41 | 0.41 | 96 | 1010.2 |
| 20260510003019 | 53 | 146 | 0.0 | 0.0 | 0.00 | 0.41 | 0.41 | 96 | 1010.1 |
| 20260510001536 | 53 | 146 | 0.0 | 0.0 | 0.00 | 0.41 | 0.41 | 96 | 1009.8 |
| 20260510000027 | 53 | 146 | 0.0 | 1.0 | 0.00 | 0.41 | 0.41 | 96 | 1009.8 |
| 20260509234530 | 54 | 155 | 0.0 | 0.0 | 0.00 | 0.41 | 0.41 | 96 | 1009.6 |
| 20260509233018 | 54 | 154 | 0.0 | 0.0 | 0.00 | 0.41 | 0.41 | 95 | 1009.4 |
| 20260509231519 | 54 | 165 | 0.0 | 0.0 | 0.00 | 0.41 | 0.41 | 95 | 1009.5 |
| 20260509230027 | 55 | 182 | 0.0 | 3.0 | 0.00 | 0.41 | 0.41 | 95 | 1009.4 |
| 20260509224525 | 55 | 167 | 2.0 | 5.0 | 0.00 | 0.41 | 0.41 | 95 | 1009.6 |
| 20260509223027 | 55 | 150 | 1.0 | 4.0 | 0.01 | 0.41 | 0.41 | 95 | 1009.6 |
| 20260509221518 | 55 | 140 | 0.0 | 3.0 | 0.01 | 0.41 | 0.41 | 96 | 1009.6 |
| 20260509220020 | 54 | 144 | 0.0 | 0.0 | 0.02 | 0.41 | 0.41 | 96 | 1009.6 |
| 20260509214534 | 54 | 144 | 0.0 | 0.0 | 0.03 | 0.41 | 0.41 | 96 | 1009.7 |
| 20260509213027 | 54 | 144 | 0.0 | 2.0 | 0.02 | 0.40 | 0.40 | 96 | 1009.8 |
| 20260509211528 | 54 | 144 | 0.0 | 3.0 | 0.03 | 0.40 | 0.40 | 96 | 1010.1 |
| 20260509210021 | 55 | 154 | 1.0 | 5.0 | 0.04 | 0.39 | 0.39 | 96 | 1010.0 |
| 20260509204530 | 54 | 159 | 0.0 | 0.0 | 0.05 | 0.38 | 0.38 | 96 | 1010.0 |
| 20260509203024 | 54 | 88 | 0.0 | 2.0 | 0.07 | 0.38 | 0.38 | 96 | 1010.2 |
| 20260509201525 | 53 | 325 | 0.0 | 3.0 | 0.08 | 0.37 | 0.37 | 96 | 1010.5 |
| 20260509200037 | 53 | 250 | 0.0 | 2.0 | 0.08 | 0.35 | 0.35 | 96 | 1010.7 |
| 20260509194526 | 53 | 169 | 0.0 | 5.0 | 0.08 | 0.33 | 0.33 | 96 | 1010.9 |
| 20260509193035 | 53 | 150 | 1.0 | 5.0 | 0.08 | 0.31 | 0.31 | 96 | 1011.0 |
| 20260509191524 | 54 | 132 | 0.0 | 3.0 | 0.09 | 0.29 | 0.29 | 96 | 1011.1 |
| 20260509190027 | 53 | 159 | 2.0 | 7.0 | 0.08 | 0.27 | 0.27 | 96 | 1011.2 |
| 20260509184533 | 54 | 159 | 2.0 | 5.0 | 0.07 | 0.25 | 0.25 | 96 | 1011.4 |
| 20260509183020 | 53 | 147 | 1.0 | 9.0 | 0.07 | 0.23 | 0.23 | 96 | 1011.6 |
| 20260509181525 | 53 | 163 | 0.0 | 0.0 | 0.06 | 0.20 | 0.20 | 96 | 1011.6 |
| 20260509180027 | 53 | 160 | 0.0 | 3.0 | 0.05 | 0.19 | 0.19 | 96 | 1011.5 |
| 20260509174528 | 53 | 155 | 0.0 | 1.0 | 0.04 | 0.18 | 0.18 | 96 | 1011.5 |
| 20260509173030 | 52 | 186 | 0.0 | 2.0 | 0.02 | 0.16 | 0.16 | 96 | 1011.4 |
| 20260509171526 | 52 | 186 | 0.0 | 2.0 | 0.01 | 0.14 | 0.14 | 96 | 1011.5 |
| 20260509170008 | 52 | 186 | 0.0 | 3.0 | 0.01 | 0.14 | 0.14 | 96 | 1011.3 |
| 20260509164511 | 52 | 271 | 0.0 | 0.0 | 0.02 | 0.14 | 0.14 | 95 | 1011.2 |
| 20260509163020 | 52 | 271 | 0.0 | 2.0 | 0.03 | 0.14 | 0.14 | 95 | 1011.4 |
| 20260509161502 | 52 | 271 | 0.0 | 0.0 | 0.03 | 0.13 | 0.13 | 95 | 1011.7 |
| 20260509160004 | 51 | 243 | 0.0 | 0.0 | 0.04 | 0.13 | 0.13 | 95 | 1012.0 |
| 20260509154508 | 51 | 243 | 0.0 | 0.0 | 0.03 | 0.12 | 0.12 | 95 | 1012.0 |
| 20260509153011 | 50 | 244 | 0.0 | 0.0 | 0.02 | 0.11 | 0.11 | 95 | 1012.2 |
| 20260509151515 | 50 | 244 | 0.0 | 0.0 | 0.01 | 0.10 | 0.10 | 94 | 1012.5 |
| 20260509150005 | 50 | 227 | 0.0 | 0.0 | 0.00 | 0.09 | 0.09 | 95 | 1012.0 |
| 20260509144513 | 50 | 19 | 0.0 | 1.0 | 0.00 | 0.09 | 0.09 | 95 | 1012.0 |
| 20260509143016 | 49 | 24 | 0.0 | 2.0 | 0.00 | 0.09 | 0.09 | 95 | 1012.0 |
| 20260509141513 | 49 | 5 | 0.0 | 3.0 | 0.00 | 0.09 | 0.09 | 95 | 1012.1 |
| 20260509140018 | 49 | 307 | 2.0 | 5.0 | 0.00 | 0.09 | 0.09 | 95 | 1012.2 |
| 20260509134522 | 48 | 346 | 0.0 | 4.0 | 0.00 | 0.09 | 0.09 | 95 | 1012.2 |
| 20260509133006 | 48 | 9 | 0.0 | 2.0 | 0.00 | 0.09 | 0.09 | 95 | 1012.4 |
| 20260509131515 | 47 | 5 | 1.0 | 3.0 | 0.00 | 0.09 | 0.09 | 95 | 1012.5 |
| 20260509130022 | 47 | 36 | 0.0 | 2.0 | 0.00 | 0.09 | 0.09 | 96 | 1012.4 |
| 20260509124523 | 46 | 36 | 0.0 | 1.0 | 0.00 | 0.09 | 0.09 | 96 | 1012.6 |
| 20260509123026 | 45 | 305 | 0.0 | 4.0 | 0.01 | 0.09 | 0.09 | 95 | 1012.2 |
| 20260509121511 | 46 | 315 | 1.0 | 3.0 | 0.01 | 0.09 | 0.09 | 95 | 1012.1 |
| 20260509120009 | 45 | 341 | 0.0 | 0.0 | 0.01 | 0.09 | 0.09 | 95 | 1012.1 |
| 20260509114516 | 45 | 341 | 0.0 | 0.0 | 0.01 | 0.09 | 0.09 | 95 | 1012.3 |
| 20260509113022 | 45 | 336 | 0.0 | 4.0 | 0.00 | 0.08 | 0.08 | 95 | 1012.5 |
| 20260509111527 | 45 | 340 | 0.0 | 0.0 | 0.00 | 0.08 | 0.08 | 95 | 1012.4 |
| 20260509110007 | 45 | 340 | 0.0 | 0.0 | 0.00 | 0.08 | 0.08 | 95 | 1012.5 |
| 20260509104514 | 44 | 340 | 0.0 | 1.0 | 0.00 | 0.08 | 0.08 | 95 | 1012.4 |
| 20260509103016 | 44 | 340 | 0.0 | 0.0 | 0.00 | 0.08 | 0.08 | 95 | 1012.1 |
| 20260509101523 | 44 | 340 | 0.0 | 2.0 | 0.00 | 0.08 | 0.08 | 95 | 1012.2 |
| 20260509100029 | 44 | 340 | 0.0 | 0.0 | 0.00 | 0.08 | 0.08 | 95 | 1012.3 |